| time (UTC) | temp F | wind direction | speed MPH | gust MPH | rain 1hr in | rain 24hr in | rain mn in | humidity % | barometer mb |
| 20260502151817 | 48 | 290 | 10.0 | 0.0 | 0.00 | 0.00 | 0.00 | 71 | 1021.0 |
| 20260502150317 | 48 | 290 | 10.0 | 0.0 | 0.00 | 0.00 | 0.00 | 71 | 1021.0 |
| 20260502130317 | 50 | 2.0 | 0.0 | 0.00 | 0.00 | 0.00 | 71 | 1022.0 | |
| 20260502123317 | 48 | 0 | 0.0 | 0.0 | 0.00 | 0.00 | 0.00 | 82 | 1022.0 |
| 20260502121817 | 46 | 280 | 5.0 | 0.0 | 0.00 | 0.00 | 0.00 | 82 | 1022.0 |
| 20260502120325 | 46 | 280 | 5.0 | 0.0 | 0.00 | 0.00 | 0.00 | 82 | 1022.0 |
| 20260502113316 | 45 | 350 | 15.0 | 0.0 | 0.00 | 0.00 | 0.00 | 81 | 1023.0 |
| 20260502111817 | 54 | 240 | 9.0 | 0.0 | 0.00 | 0.00 | 0.00 | 58 | 1022.0 |
| 20260502110317 | 54 | 240 | 9.0 | 0.0 | 0.00 | 0.00 | 0.00 | 58 | 1022.0 |
| 20260502104817 | 52 | 230 | 10.0 | 0.0 | 0.00 | 0.00 | 0.00 | 67 | 1022.0 |
| 20260502103317 | 52 | 230 | 10.0 | 0.0 | 0.00 | 0.00 | 0.00 | 67 | 1022.0 |
| 20260502101814 | 50 | 240 | 9.0 | 0.0 | 0.00 | 0.00 | 0.00 | 71 | 1022.0 |
| 20260502100317 | 50 | 240 | 9.0 | 0.0 | 0.00 | 0.00 | 0.00 | 71 | 1022.0 |
| 20260502090317 | 52 | 70 | 8.0 | 0.0 | 0.00 | 0.00 | 0.00 | 54 | 1022.0 |
| 20260502070318 | 50 | 330 | 6.0 | 0.0 | 0.00 | 0.00 | 0.00 | 58 | 1022.0 |
| 20260502064817 | 50 | 330 | 8.0 | 0.0 | 0.00 | 0.00 | 0.00 | 54 | 1022.0 |
| 20260502063317 | 50 | 330 | 8.0 | 0.0 | 0.00 | 0.00 | 0.00 | 54 | 1022.0 |
| 20260502061817 | 48 | 320 | 9.0 | 0.0 | 0.00 | 0.00 | 0.00 | 58 | 1022.0 |
| 20260502060317 | 48 | 320 | 9.0 | 0.0 | 0.00 | 0.00 | 0.00 | 58 | 1022.0 |
| 20260502054817 | 46 | 310 | 7.0 | 0.0 | 0.00 | 0.00 | 0.00 | 66 | 1022.0 |
| 20260502053317 | 46 | 310 | 7.0 | 0.0 | 0.00 | 0.00 | 0.00 | 66 | 1022.0 |
| 20260502051817 | 43 | 300 | 6.0 | 0.0 | 0.00 | 0.00 | 0.00 | 76 | 1022.0 |
| 20260502050317 | 43 | 300 | 6.0 | 0.0 | 0.00 | 0.00 | 0.00 | 76 | 1022.0 |
| 20260502044817 | 41 | 300 | 7.0 | 0.0 | 0.00 | 0.00 | 0.00 | 81 | 1022.0 |
| 20260502043317 | 41 | 300 | 7.0 | 0.0 | 0.00 | 0.00 | 0.00 | 81 | 1022.0 |
| 20260502041817 | 39 | 290 | 8.0 | 0.0 | 0.00 | 0.00 | 0.00 | 81 | 1022.0 |
| 20260502040317 | 39 | 290 | 8.0 | 0.0 | 0.00 | 0.00 | 0.00 | 81 | 1022.0 |
| 20260502034933 | 39 | 290 | 8.0 | 0.0 | 0.00 | 0.00 | 0.00 | 81 | 1022.0 |
| 20260502033316 | 39 | 290 | 8.0 | 0.0 | 0.00 | 0.00 | 0.00 | 81 | 1022.0 |
| 20260502031817 | 37 | 290 | 8.0 | 0.0 | 0.00 | 0.00 | 0.00 | 81 | 1022.0 |
| 20260502030317 | 37 | 290 | 8.0 | 0.0 | 0.00 | 0.00 | 0.00 | 81 | 1022.0 |
| 20260502024817 | 37 | 290 | 8.0 | 0.0 | 0.00 | 0.00 | 0.00 | 81 | 1022.0 |
| 20260502023317 | 37 | 290 | 8.0 | 0.0 | 0.00 | 0.00 | 0.00 | 81 | 1022.0 |
| 20260502021817 | 36 | 290 | 8.0 | 0.0 | 0.00 | 0.00 | 0.00 | 87 | 1022.0 |
| 20260502020317 | 36 | 290 | 8.0 | 0.0 | 0.00 | 0.00 | 0.00 | 87 | 1022.0 |
| 20260502014817 | 36 | 290 | 9.0 | 0.0 | 0.00 | 0.00 | 0.00 | 81 | 1022.0 |
| 20260502013317 | 36 | 290 | 9.0 | 0.0 | 0.00 | 0.00 | 0.00 | 81 | 1022.0 |
| 20260502011818 | 37 | 290 | 8.0 | 0.0 | 0.00 | 0.00 | 0.00 | 75 | 1023.0 |
| 20260502010317 | 37 | 290 | 8.0 | 0.0 | 0.00 | 0.00 | 0.00 | 75 | 1023.0 |
| 20260502004817 | 36 | 290 | 8.0 | 0.0 | 0.00 | 0.00 | 0.00 | 81 | 1023.0 |
| 20260502003317 | 36 | 290 | 8.0 | 0.0 | 0.00 | 0.00 | 0.00 | 81 | 1023.0 |
| 20260502001817 | 36 | 290 | 8.0 | 0.0 | 0.00 | 0.00 | 0.00 | 81 | 1023.0 |
| 20260502000317 | 36 | 290 | 8.0 | 0.0 | 0.00 | 0.00 | 0.00 | 81 | 1023.0 |
| 20260501234827 | 36 | 290 | 8.0 | 0.0 | 0.00 | 0.00 | 0.00 | 81 | 1023.0 |
| 20260501233318 | 36 | 290 | 8.0 | 0.0 | 0.00 | 0.00 | 0.00 | 81 | 1023.0 |
| 20260501231817 | 36 | 280 | 7.0 | 0.0 | 0.00 | 0.00 | 0.00 | 81 | 1023.0 |
| 20260501230317 | 36 | 280 | 7.0 | 0.0 | 0.00 | 0.00 | 0.00 | 81 | 1023.0 |
| 20260501224817 | 36 | 270 | 7.0 | 0.0 | 0.00 | 0.00 | 0.00 | 81 | 1024.0 |
| 20260501223317 | 36 | 270 | 7.0 | 0.0 | 0.00 | 0.00 | 0.00 | 81 | 1024.0 |
| 20260501221817 | 37 | 280 | 7.0 | 0.0 | 0.00 | 0.00 | 0.00 | 81 | 1024.0 |
| 20260501220316 | 37 | 280 | 7.0 | 0.0 | 0.00 | 0.00 | 0.00 | 81 | 1024.0 |
| 20260501214817 | 37 | 250 | 6.0 | 0.0 | 0.00 | 0.00 | 0.00 | 81 | 1024.0 |
| 20260501213317 | 37 | 250 | 6.0 | 0.0 | 0.00 | 0.00 | 0.00 | 81 | 1024.0 |
| 20260501211817 | 36 | 240 | 5.0 | 0.0 | 0.00 | 0.00 | 0.00 | 81 | 1024.0 |
| 20260501210317 | 36 | 240 | 5.0 | 0.0 | 0.00 | 0.00 | 0.00 | 81 | 1024.0 |
| 20260501204817 | 39 | 260 | 3.0 | 0.0 | 0.00 | 0.00 | 0.00 | 70 | 1024.0 |
| 20260501203317 | 39 | 260 | 3.0 | 0.0 | 0.00 | 0.00 | 0.00 | 70 | 1024.0 |
| 20260501201817 | 37 | 290 | 6.0 | 0.0 | 0.00 | 0.00 | 0.00 | 81 | 1024.0 |
| 20260501200317 | 37 | 290 | 6.0 | 0.0 | 0.00 | 0.00 | 0.00 | 81 | 1024.0 |
| 20260501194835 | 37 | 0 | 0.0 | 0.0 | 0.00 | 0.00 | 0.00 | 75 | 1024.0 |
| 20260501193338 | 37 | 0 | 0.0 | 0.0 | 0.00 | 0.00 | 0.00 | 75 | 1024.0 |
| 20260501191817 | 37 | 0 | 0.0 | 0.0 | 0.00 | 0.00 | 0.00 | 75 | 1024.0 |
| 20260501190317 | 37 | 0 | 0.0 | 0.0 | 0.00 | 0.00 | 0.00 | 75 | 1024.0 |
| 20260501184817 | 45 | 0 | 0.0 | 0.0 | 0.00 | 0.00 | 0.00 | 53 | 1024.0 |
| 20260501183346 | 45 | 0 | 0.0 | 0.0 | 0.00 | 0.00 | 0.00 | 53 | 1024.0 |
| 20260501181817 | 46 | 0 | 0.0 | 0.0 | 0.00 | 0.00 | 0.00 | 50 | 1024.0 |
| 20260501180340 | 46 | 0 | 0.0 | 0.0 | 0.00 | 0.00 | 0.00 | 50 | 1024.0 |
| 20260501174817 | 46 | 0 | 0.0 | 0.0 | 0.00 | 0.00 | 0.00 | 53 | 1024.0 |
| 20260501173317 | 46 | 0 | 0.0 | 0.0 | 0.00 | 0.00 | 0.00 | 53 | 1024.0 |
| 20260501171842 | 48 | 1.0 | 0.0 | 0.00 | 0.00 | 0.00 | 58 | 1024.0 | |
| 20260501170317 | 48 | 1.0 | 0.0 | 0.00 | 0.00 | 0.00 | 58 | 1024.0 | |
| 20260501164817 | 48 | 50 | 6.0 | 0.0 | 0.00 | 0.00 | 0.00 | 58 | 1024.0 |
| 20260501163316 | 48 | 50 | 6.0 | 0.0 | 0.00 | 0.00 | 0.00 | 58 | 1024.0 |
| 20260501161817 | 50 | 50 | 7.0 | 0.0 | 0.00 | 0.00 | 0.00 | 47 | 1023.0 |
| 20260501160317 | 50 | 50 | 7.0 | 0.0 | 0.00 | 0.00 | 0.00 | 47 | 1023.0 |